STARLINK-11551, 62840

Orbit data source: Space-Track

STARLINK-11551, 62840 is a payload satellite owned by SpaceX/Seattle (US) in LEO that was launched on Mon, 27 Jan 2025 UTC via an FALCON 9 launch vehicle from the Air Force Eastern Test Range (AFETR). Payload-class satellites include a variety of spacecraft equipped with specific instruments for various scientific and technological missions. These include communications satellites like Starlink; space stations such as the ISS; scientific satellites like the Hubble; Earth observation satellites from companies like Planet Labs, Umbra, and HawkEye 360; GPS; miniature CubeSats for education and research; and military/defense satellites.

Loading next visibility...
Identifier
62840, 2025-019M
Orbit
LEO
Country
Flag of USUS
Related business
Manufacturer
SpaceX/Seattle
Mission
Operational Commercial Communications
Bus & Motor
STARLINK V2MD, Unknown motor
Mass
960 kg wet, ~910 kg dry
Launch date (UTC)
2025-01-27 (1 year ago)
Launch vehicle
FALCON 9
Launch site
Air Force Eastern Test Range (AFETR)
Object type
Payload
Rocket body
Debris
Shape & HBR
Box + 2 Pan, 18.1 m
Radar Cross Section
36.964 m², Large (>1 m²)

Expand to show TLE details & history
Last TLE update: 10 hours ago

TLE from 10 hours ago
0 STARLINK-11551
1 62840U 25019M   26071.94610094  .00234254  00000-0  17743-2 0  9990
2 62840  42.9999 286.2827 0001728 273.5951  86.4719 15.70890978 64390
Epoch: 2026-03-12T22:42Z
TLE epoch observation values (Epoch: 2026-03-12T22:42:23.121Z)
Latitude
-0.00001°
Longitude
135.09766°
Altitude
356.049 km
Speed
7.697 km/s
True Right ascension
19h 05m 07s
True Declination
0° 00' 00"
Sunlit
Object was in daylight at epoch
Visualization orbit readout
Latitude
Unknown
Longitude
Unknown
Altitude
Unknown
Speed
Unknown
Apparent Right ascension
Unknown
Apparent Declination
Unknown
Sunlit
N/A
Visualization observer readout
Local Sidereal Time
13:11:54
Azimuth
Unknown
Elevation
Unknown
Doppler factor
Unknown
Orbital elements
Apogee altitude
359.495 km
Perigee altitude
357.167 km
Semi-major axis
6,736.468 km
Eccentricity
0.00017
Inclination
42.9999°
RAAN
286.2827°
Arg. of periapsis
273.5951°
True anomaly
86.49166°
Mean anomaly
86.4719°
Eccentric anomaly
86.48178°
Mean motion
3.9255 °/min
Orbital period
91.71 mins
BSTAR
0.0017743
Loading maneuver chart data...
Computing Atmospheric mass density...
Loading historical data...
Loading historical data...
Loading historical data...
Loading historical data...
Loading historical data...
Loading historical data...
Loading historical data...

Documentation

Showing up to 5 results
|